Tupelo, MS

8:40 AM CDT on May 29, 2017 (GMT -0500)
Tupelo Regional

Weather History for KTUP - June, 2013

Change the Weather History Date:

Friday, June 28, 2013

  Actual Average Record
Temperature  
Mean Temperature 80 °F 80 °F  
Max Temperature 87 °F 91 °F 104 °F (1954)
Min Temperature 72 °F 70 °F 53 °F (1974)
Degree Days  
Heating Degree Days 0 0  
Month to date heating degree days 0 0  
Since 1 June heating degree days 0 0  
Since 1 July heating degree days 2960 2956  
Cooling Degree Days 15 15  
Month to date cooling degree days 389 362  
Year to date cooling degree days 635 639  
Since 1 June cooling degree days 389 362  
Growing Degree Days 30 (Base 50)    
Moisture  
Dew Point 71 °F    
Average Humidity 80    
Maximum Humidity 94    
Minimum Humidity 65    
Precipitation  
Precipitation 0.05 in 0.15 in 2.21 in (1939)
Month to date precipitation 2.04 4.22  
Year to date precipitation 30.47 28.82  
Snow  
Snow 0.00 in 0.00 in - ()
Month to date snowfall 0.0 0.0  
Since 1 June snowfall 0.0 0.0  
Since 1 July snowfall T 2.1  
Snow Depth 0.00 in    
Sea Level Pressure  
Sea Level Pressure 29.81 in    
Wind  
Wind Speed 4 mph (WNW)    
Max Wind Speed 15 mph    
Max Gust Speed 22 mph    
Visibility 10 miles    
Events Rain , Thunderstorm    
T = Trace of Precipitation, MM = Missing Value Source: NWS Daily Summary

Daily Weather History Graph

Daily Weather History Graph

Search for Another Location

Airport or City:

Trip Planner

Search our weather history database for the weather conditions in past years. The results will help you decide how hot, cold, wet, or windy it might be!

Date:

Astronomy

Jun. 28, 2013 Rise Set
Actual Time 5:45 AM CDT 8:11 PM CDT
Civil Twilight 5:16 AM CDT 8:40 PM CDT
Nautical Twilight 4:40 AM CDT 9:16 PM CDT
Astronomical Twilight 4:00 AM CDT 9:55 PM CDT
Moon 11:58 PM CDT (6/28) 11:36 AM CDT (6/28)
Length of Visible Light 15h 24m
Length of Day
14h 25m
Waning Gibbous, 66% of the Moon is Illuminated
Jun 28
Waning Gibbous
Jun 29
Last Quarter
Jul 8
New
Jul 15
First Quarter
Jul 22
Full

Hourly Weather History & Observations

Time (CDT) Temp. Heat Index Dew Point Humidity Pressure Visibility Wind Dir Wind Speed Gust Speed Precip Events Conditions
12:53 AM 77.0 °F - 72.0 °F 84% 29.85 in 10.0 mi SW 3.5 mph - N/A   Clear
1:53 AM 77.0 °F - 71.1 °F 82% 29.85 in 10.0 mi Calm Calm - N/A   Clear
2:53 AM 77.0 °F - 71.1 °F 82% 29.85 in 10.0 mi Calm Calm - N/A   Clear
3:53 AM 75.9 °F - 70.0 °F 82% 29.83 in 10.0 mi Calm Calm - N/A   Clear
4:53 AM 75.0 °F - 70.0 °F 84% 29.82 in 10.0 mi WSW 3.5 mph - N/A   Clear
5:53 AM 73.9 °F - 71.1 °F 91% 29.83 in 10.0 mi SW 3.5 mph - N/A   Clear
6:53 AM 75.9 °F - 71.1 °F 85% 29.83 in 10.0 mi SW 3.5 mph - N/A   Clear
7:53 AM 77.0 °F - 71.1 °F 82% 29.85 in 10.0 mi Calm Calm - N/A   Clear
8:10 AM 78.8 °F - 71.6 °F 78% 29.90 in 10.0 mi North 12.7 mph 26.5 mph N/A Thunderstorm Thunderstorm
8:23 AM 77.0 °F - 69.8 °F 78% 29.90 in 10.0 mi North 16.1 mph 31.1 mph N/A Thunderstorm Thunderstorm
8:43 AM 77.0 °F - 69.8 °F 78% 29.91 in 10.0 mi North 10.4 mph 19.6 mph N/A   Overcast
8:53 AM 75.9 °F - 68.0 °F 76% 29.93 in 10.0 mi North 13.8 mph 19.6 mph N/A Thunderstorm Overcast
9:03 AM 75.2 °F - 68.0 °F 78% 29.93 in 10.0 mi North 10.4 mph - N/A Thunderstorm Thunderstorm
9:55 AM 73.4 °F - 66.2 °F 78% 29.87 in - East 5.8 mph - 0.01 in Rain , Thunderstorm Light Thunderstorms and Rain
10:53 AM 72.0 °F - 69.1 °F 91% 29.85 in 10.0 mi West 4.6 mph - 0.03 in Rain , Thunderstorm Light Thunderstorms and Rain
11:12 AM 73.4 °F - 69.8 °F 88% 29.84 in 10.0 mi SW 6.9 mph - 0.00 in   Mostly Cloudy
11:51 AM 75.2 °F - 71.6 °F 89% 29.85 in 10.0 mi NNW 5.8 mph - 0.01 in Thunderstorm Thunderstorm
11:53 AM 75.0 °F - 71.1 °F 87% 29.85 in 10.0 mi NNW 6.9 mph - 0.01 in Thunderstorm Thunderstorm
12:53 PM 73.0 °F - 69.1 °F 87% 29.80 in 10.0 mi West 5.8 mph - 0.01 in Thunderstorm Thunderstorm
1:00 PM 73.4 °F - 69.8 °F 88% 29.81 in 10.0 mi Calm Calm - N/A   Partly Cloudy
1:53 PM 75.9 °F - 70.0 °F 82% 29.78 in 10.0 mi WSW 4.6 mph - N/A   Clear
2:53 PM 82.0 °F 86.7 °F 72.0 °F 71% 29.75 in 10.0 mi West 9.2 mph - N/A   Clear
3:53 PM 84.0 °F 91.2 °F 73.9 °F 72% 29.75 in 10.0 mi NNW 8.1 mph - N/A   Mostly Cloudy
4:21 PM 84.2 °F 90.9 °F 73.4 °F 70% 29.76 in 10.0 mi NW 6.9 mph - N/A   Mostly Cloudy
4:53 PM 86.0 °F 93.8 °F 73.9 °F 67% 29.74 in 10.0 mi NW 5.8 mph - N/A   Mostly Cloudy
5:53 PM 86.0 °F 93.8 °F 73.9 °F 67% 29.73 in 10.0 mi NNW 8.1 mph - N/A   Mostly Cloudy
6:53 PM 86.0 °F 93.0 °F 73.0 °F 65% 29.71 in 10.0 mi North 4.6 mph - N/A   Mostly Cloudy
7:53 PM 82.9 °F 89.4 °F 73.9 °F 74% 29.71 in 10.0 mi Calm Calm - N/A   Clear
8:53 PM 80.1 °F 84.5 °F 73.9 °F 81% 29.75 in 10.0 mi WNW 3.5 mph - N/A   Clear
9:53 PM 77.0 °F - 73.9 °F 90% 29.75 in 10.0 mi Calm Calm - N/A   Clear
10:53 PM 75.9 °F - 73.0 °F 91% 29.77 in 10.0 mi SW 3.5 mph - N/A   Clear
11:53 PM 75.9 °F - 73.0 °F 91% 29.75 in 10.0 mi West 3.5 mph - N/A   Clear